Flag for Germany Weather past 2 weeks in Bad Mergentheim, Baden-Württemberg, Germany

Now
54 °F

Scattered clouds.


Feels Like: 52 °F
Forecast: 40 / 53 °F
Wind: 7 mph from Southeast

Location: Niederstetten


UV Index: 3 (Moderate)

Visibility: N/A


Pressure: 30.15 "Hg

Humidity: 35%

Dew point: 27 °F

Location of Bad MergentheimLocation

Historic Weather in Bad Mergentheim

°F

Bad Mergentheim temperature yesterday

Maximum temperature yesterday: 50 °F (at 5:20 PM)
Minimum temperature yesterday: 34 °F (at 5:20 AM)
Average temperature yesterday: 42 °F

Past Weeks' High & Low Weather Summary

 TemperatureHumidityPressure
High68 °F (Apr 2, 4:20 PM)100% (Apr 6, 1:20 AM)30.36 "Hg (Apr 6, 1:20 AM)
Low32 °F (Apr 17, 6:20 AM)35% (Apr 2, 5:20 PM)29.68 "Hg (Apr 3, 1:20 AM)
Average51 °F64%30.03 "Hg
* Reported Apr 2 1:20 PM — Apr 17 1:20 PM, Bad Mergentheim, Weather by CustomWeather, © 2014

Note: Actual official high and low records may vary slightly from our data, if they occured in-between our weather recording intervals... More about our weather records

Advertising

Historic Weather Conditions — Data for Previous 24 hours

 ConditionsComfort  
Time TempWeatherWind HumidityBarometerVisibility
1:20 PM
Apr 17
52 °FScattered clouds.8 mph35%30.18 "HgN/A
12:20 PM48 °FPassing clouds.7 mph43%30.21 "HgN/A
11:20 AM46 °FPassing clouds.10 mph40%30.24 "HgN/A
10:20 AM46 °FPassing clouds.9 mph46%30.27 "HgN/A
9:20 AM43 °FPassing clouds.9 mph53%30.27 "HgN/A
8:20 AM39 °FPassing clouds.7 mph61%30.27 "HgN/A
7:20 AM36 °FPassing clouds.5 mph65%30.27 "HgN/A
6:20 AM32 °FPassing clouds.5 mph69%30.27 "HgN/A
5:20 AM34 °FPassing clouds.7 mph70%30.27 "HgN/A
4:20 AM34 °FPassing clouds.7 mph70%30.30 "HgN/A
3:20 AM34 °FPassing clouds.7 mph70%30.30 "HgN/A
2:20 AM36 °FPassing clouds.7 mph65%30.33 "HgN/A
1:20 AM36 °FPassing clouds.5 mph65%30.33 "HgN/A
12:20 AM36 °FChilly.6 mph65%30.33 "HgN/A
11:20 PM
Apr 16
37 °FChilly.7 mph65%30.36 "HgN/A
10:20 PM39 °FChilly.5 mph61%30.36 "HgN/A
9:20 PM39 °FPassing clouds.6 mph61%30.36 "HgN/A
8:20 PM43 °FPassing clouds.6 mph57%30.33 "HgN/A
7:20 PM46 °FPassing clouds.7 mph53%30.33 "HgN/A
6:20 PM48 °FScattered clouds.8 mph50%30.33 "HgN/A
5:20 PM50 °FScattered clouds.5 mph47%30.36 "HgN/A
5:00 PM48 °FScattered clouds.6 mph50%30.36 "HgN/A
4:20 PM48 °FPartly sunny.7 mph50%30.36 "HgN/A
3:20 PM48 °FPartly sunny.5 mph50%30.36 "HgN/A
Weather by CustomWeather, © 2014

See weather overview